Regional Weather Roundup
Issued by NWS

Home | Current Version | Previous Version | Graphics & Text | Print | Product List | Glossary On
Versions: 1 2 3 4 5 6 7 8 9 10 11 12 13 14 15 16 17 18 19 20 21 22 23 24 25 26 27 28 29 30 31 32 33 34 35 36 37 38 39 40 41 42 43 44 45 46 47 48 49 50
000
ASUS43 KDMX 061807
RWRIA

WEATHER ROUNDUP FOR IOWA
NATIONAL WEATHER SERVICE DES MOINES IA
100 PM CDT MON JUL 06 2015

NOTE: "FAIR" INDICATES FEW OR NO CLOUDS BELOW 12,000 FEET WITH NO
SIGNIFICANT WEATHER AND/OR OBSTRUCTIONS TO VISIBILITY.

* - THESE STATIONS ARE NOT NWS STATIONS...THUS NOT UNDER NWS
QUALITY CONTROL.  THEY ALSO DO NOT REPORT WEATHER SUCH
AS PRECIPITATION OR FOG.

IAZ001>003-012>014-020>022-031>034-043>046-061900-
   NORTHWEST IOWA

CITY           SKY/WX    TMP DP  RH WIND       PRES   REMARKS
CARROLL *      CLOUDY    75  72  88 W7        29.90R
CHEROKEE *     CLOUDY    69  68  97 N16G23    29.92R
DENISON *      CLOUDY    75  70  83 NW8       29.89S
LE MARS *      CLOUDY    72  66  83 N14G25    29.96R
ORANGE CITY *  MOSUNNY   70  63  78 N14       29.95S HAZE
SHELDON *      CLOUDY    72  72 100 N18G28    29.94S
SIOUX CITY     LGT RAIN  72  68  87 N16       29.94R
6HR MIN TEMP:  71; 6HR MAX TEMP:  75; 6HR PCP:  0.06;

SPENCER        CLOUDY    71  59  65 N20       29.93R HAZE
6HR MIN TEMP:  68; 6HR MAX TEMP:  73; 6HR PCP:  0.05;

STORM LAKE *   CLOUDY    72  70  94 N8        29.92S FOG
$$

IAZ055>058-069>071-079>083-090>094-061900-
   SOUTHWEST IOWA

CITY           SKY/WX    TMP DP  RH WIND       PRES   REMARKS
ATLANTIC *     LGT RAIN  73  72  94 SW6       29.91R
AUDUBON *      CLOUDY    73  70  88 SW5       29.92S
CLARINDA *     LGT RAIN  77  77 100 CALM      29.90F
COUNCIL BLFS * HVY RAIN  72  72 100 W5        29.92S
CRESTON *      CLOUDY    73  72  94 E6        29.89F
HARLAN  *      CLOUDY    73  73 100 SW8       29.94F
LAMONI         CLOUDY    81  73  76 S5        29.89F HX  86
6HR MIN TEMP:  74; 6HR MAX TEMP:  81;

RED OAK *      PTSUNNY   79  75  89 N7        29.89S HX  82
SHENANDOAH *   MOSUNNY   79  75  89 NE8       29.88F HX  82
$$

IAZ047>049-059>061-072>074-084-061900-
   CENTRAL IOWA

CITY           SKY/WX    TMP DP  RH WIND       PRES   REMARKS
AMES           HVY RAIN  74  72  93 SW5       29.89R VSB 3/4
6HR MIN TEMP:  69; 6HR MAX TEMP:  76; 6HR PCP:  1.13;

ANKENY *       CLOUDY    77  77 100 S6        29.85F
CHARITON *     LGT RAIN  77  75  94 SE5       29.88F
DES MOINES     LGT RAIN  78  72  81 S6        29.85F HX  80
6HR MIN TEMP:  74; 6HR MAX TEMP:  78; 6HR PCP:  0.07;

GRINNELL*      LGT RAIN  76  72  85 SW12      29.90R
KNOXVILLE *    RAIN      75  73  94 CALM      29.87F
MARSHALLTOWN   CLOUDY    76  72  87 S14       29.87R
6HR MIN TEMP:  68; 6HR MAX TEMP:  76; 6HR PCP:  1.40;

PELLA *        RAIN      75  75 100 S5        29.90S
PERRY *        RAIN      72  70  94 SW8       29.89F
$$

IAZ004>006-015-016-023>025-035-036-061900-
   NORTH CENTRAL IOWA

CITY           SKY/WX    TMP DP  RH WIND       PRES   REMARKS
ALGONA *       DRIZZLE   72  70  94 NW16G26   29.90R
CLARION *      PTSUNNY   79  72  78 W14       29.87R HX  82
ESTHERVILLE    CLOUDY    67  62  84 N18G26    29.92S HAZE
6HR MIN TEMP:  65; 6HR MAX TEMP:  72; 6HR PCP:  0.14;

FORT DODGE *   CLOUDY    79  72  78 SW8       29.89R HX  82
MASON CITY       N/A     78  71  79 W16       29.87R HX  80
6HR MIN TEMP:  71; 6HR MAX TEMP:  79; 6HR PCP:  0.08;

FOREST CITY *  PTSUNNY   79  68  69 W10       29.86S HX  81
IOWA FALLS *   CLOUDY    75  70  83 SW13      29.90R
$$

IAZ007>011-017>019-026>030-037>042-050>054-066-061900-
   NORTHEAST IOWA

CITY           SKY/WX    TMP DP  RH WIND       PRES   REMARKS
CEDAR RAPIDS   CLOUDY    76  73  91 S13       29.86F
6HR MIN TEMP:  70; 6HR MAX TEMP:  76; 6HR PCP:  0.45;

CHARLES CITY * PTSUNNY   75  73  94 S14G20    29.85F
CLINTON *      CLOUDY    75  72  88 S12       29.91F
DECORAH *        N/A    N/A N/A N/A MISG        N/A
DUBUQUE        CLOUDY    74  73  97 S16       29.86F
6HR MIN TEMP:  69; 6HR MAX TEMP:  74; 6HR PCP:  0.17;

MONTICELLO *   MOSUNNY   77  75  94 S12       29.86F
OELWEIN *      SUNNY     73  72  94 SW9       29.87R
WATERLOO       CLOUDY    76  72  87 S10       29.85R
6HR MIN TEMP:  68; 6HR MAX TEMP:  76; 6HR PCP:  0.40;

$$

IAZ064-065-067-068-078-061900-
   EAST CENTRAL IOWA

CITY           SKY/WX    TMP DP  RH WIND       PRES   REMARKS
DAVENPORT      CLOUDY    78  71  79 S10       29.89F HX  80
6HR MIN TEMP:  72; 6HR MAX TEMP:  78; 6HR PCP:  0.02;

IOWA CITY      LGT RAIN  74  72  93 S6        29.89F
6HR MIN TEMP:  72; 6HR MAX TEMP:  74; 6HR PCP:  0.38;

MT. PLEASANT * CLOUDY    83  71  66 S10       29.91F HX  87
MUSCATINE *    PTSUNNY   81  73  78 S10       29.89F HX  85
QUAD CITIES    CLOUDY    81  72  74 S10       29.89F HX  85
6HR MIN TEMP:  73; 6HR MAX TEMP:  81;

$$

IAZ062-063-075>077-085>089-095>099-061900-
   SOUTHEAST IOWA

CITY           SKY/WX    TMP DP  RH WIND       PRES   REMARKS
BURLINGTON     CLOUDY    81  75  82 SW12      29.92F HX  87
6HR MIN TEMP:  73; 6HR MAX TEMP:  81;

FAIRFIELD *    MOSUNNY   82  72  69 S12       29.90F HX  87
FORT MADISON * CLOUDY    81  73  78 S12       29.93S HX  85
KEOKUK *       MOSUNNY   82  75  78 S12       29.92S HX  89
OSKALOOSA *      N/A     79  73  81 S9        29.88F HX  82
CENTERVILLE *  MOSUNNY   82  73  74 S7        29.92F HX  88
OTTUMWA        CLOUDY    80  74  81 S10       29.87F HX  85
6HR MIN TEMP:  72; 6HR MAX TEMP:  81; 6HR PCP: TRACE;

WASHINGTON *   MOSUNNY   81  73  78 S9        29.91F HX  85
$$

ABBREVIATIONS USED IN REMARKS
   TC - TEMPERATURES IN CELSIUS
  WCI - WIND CHILL INDEX
   HX - HEAT INDEX
  VSB - VISIBILITY
$$




USA.gov is the U.S. government's official web portal to all federal, state and local government web resources and services.